logo tempoitalia

Diretta Meteo Ogallala Searle Fld, Stati Uniti (USA)lunedì 31 agosto ore 00:35

Mappa
Sereno 18 °C Sereno 24 Ore: T.min 17 T.max 33
Ponente Nord Km/h 5.5 Punto di rugiada: 14 °C Umidità: 77% Visibilità: 10 Km
Il sole sorge alle: 06:13 Il sole tramonta alle: 19:21
31 Agosto 2026 00:35 tempo osservato: Sereno Sereno 18 77 1016 vento: Nord N 5.5
31 Agosto 2026 00:15 tempo osservato: Sereno Sereno 19 68 1015 vento: Nord O 9.3
30 Agosto 2026 23:55 tempo osservato: Sereno Sereno 19 68 1015 vento: Nord O/NO 7.4
30 Agosto 2026 23:35 tempo osservato: Sereno Sereno 19 68 1015 vento: Nord O/NO 9.3
30 Agosto 2026 23:15 tempo osservato: Sereno Sereno 20 64 1015 vento: Nord NO 7.4
30 Agosto 2026 22:55 tempo osservato: Sereno Sereno 21 64 1015 vento: Nord N/NO 7.4
30 Agosto 2026 22:35 tempo osservato: Sereno Sereno 23 53 1015 vento: Nord O/NO 9.3
30 Agosto 2026 22:15 tempo osservato: Sereno Sereno 24 50 1015 vento: Nord O/NO 11.1
30 Agosto 2026 21:55 tempo osservato: Sereno Sereno 23 56 1015 vento: Nord N 5.5
30 Agosto 2026 21:35 tempo osservato: Sereno Sereno 23 60 1015 vento: Nord O/NO 9.3
30 Agosto 2026 21:15 tempo osservato: Sereno Sereno 23 56 1015 vento: Nord O/NO 11.1
30 Agosto 2026 20:55 tempo osservato: Sereno Sereno 22 64 1015 vento: Nord NO 7.4
30 Agosto 2026 20:35 tempo osservato: Sereno Sereno 24 53 1015 vento: Nord O 11.1
30 Agosto 2026 20:15 tempo osservato: Sereno Sereno 24 53 1015 vento: Nord O 11.1
30 Agosto 2026 19:55 tempo osservato: Sereno Sereno 24 57 1014 vento: Nord O/NO 11.1
30 Agosto 2026 19:35 tempo osservato: Sereno Sereno 24 53 1014 vento: Nord O 9.3
30 Agosto 2026 19:15 tempo osservato: Sereno Sereno 26 44 1014 vento: Nord O 13
30 Agosto 2026 18:55 tempo osservato: Sereno Sereno 26 47 1013 vento: Nord O/SO 13
30 Agosto 2026 18:35 tempo osservato: Sereno Sereno 29 35 1013 vento: Nord N 5.5
30 Agosto 2026 18:15 tempo osservato: Sereno Sereno 31 29 1013 vento: Nord O 22.2
30 Agosto 2026 17:55 tempo osservato: Sereno Sereno 30 33 1013 vento: Nord O 13
30 Agosto 2026 17:35 tempo osservato: Sereno Sereno 31 43 1013 vento: Nord N 0
30 Agosto 2026 17:15 tempo osservato: Sereno Sereno 30 42 1013 vento: Nord O 7.4
30 Agosto 2026 16:55 tempo osservato: Sereno Sereno 32 38 1012 vento: Nord O 9.3
30 Agosto 2026 16:35 tempo osservato: Sereno Sereno 32 38 1012 vento: Nord SO 16.7
30 Agosto 2026 16:15 tempo osservato: Sereno Sereno 32 35 1012 vento: Nord O/SO 13
30 Agosto 2026 15:55 tempo osservato: Sereno Sereno 33 33 1012 vento: Nord O/SO 14.8
30 Agosto 2026 15:35 tempo osservato: Sereno Sereno 33 31 1012 vento: Nord O/SO 22.2
30 Agosto 2026 15:15 tempo osservato: Sereno Sereno 32 31 1012 vento: Nord O/SO 22.2
30 Agosto 2026 14:55 tempo osservato: Sereno Sereno 33 33 1012 vento: Nord O/SO 16.7
30 Agosto 2026 14:35 tempo osservato: Sereno Sereno 33 29 1012 vento: Nord N 0
30 Agosto 2026 14:15 tempo osservato: Sereno Sereno 33 29 1012 vento: Nord N 0
30 Agosto 2026 13:55 tempo osservato: Sereno Sereno 33 29 1013 vento: Nord N/NO 9.3
30 Agosto 2026 13:35 tempo osservato: Sereno Sereno 33 29 1013 vento: Nord O/NO 7.4
30 Agosto 2026 13:15 tempo osservato: Sereno Sereno 33 27 1013 vento: Nord O/NO 11.1
30 Agosto 2026 12:55 tempo osservato: Sereno Sereno 32 31 1013 vento: Nord NO 14.8
30 Agosto 2026 12:35 tempo osservato: Sereno Sereno 32 33 1013 vento: Nord NO 14.8
30 Agosto 2026 12:15 tempo osservato: Sereno Sereno 32 31 1013 vento: Nord O 11.1
30 Agosto 2026 11:55 tempo osservato: Sereno Sereno 32 33 1014 vento: Nord O/NO 9.3
30 Agosto 2026 11:35 tempo osservato: Sereno Sereno 30 37 1014 vento: Nord NO 11.1
30 Agosto 2026 11:15 tempo osservato: Sereno Sereno 29 51 1014 vento: Nord O/SO 9.3
30 Agosto 2026 10:55 tempo osservato: Sereno Sereno 28 54 1014 vento: Nord O 9.3
30 Agosto 2026 10:35 tempo osservato: Sereno Sereno 26 57 1014 vento: Nord O/SO 11.1
30 Agosto 2026 10:15 tempo osservato: Sereno Sereno 27 54 1014 vento: Nord O/SO 11.1
30 Agosto 2026 09:55 tempo osservato: Sereno Sereno 25 61 1014 vento: Nord SO 11.1
30 Agosto 2026 09:35 tempo osservato: Sereno Sereno 24 64 1014 vento: Nord SO 9.3
30 Agosto 2026 09:15 tempo osservato: Sereno Sereno 23 68 1014 vento: Nord SO 9.3
30 Agosto 2026 08:55 tempo osservato: Sereno Sereno 21 77 1014 vento: Nord SO 7.4
30 Agosto 2026 08:35 tempo osservato: Sereno Sereno 21 73 1014 vento: Nord SO 11.1
30 Agosto 2026 08:15 tempo osservato: Sereno Sereno 20 77 1014 vento: Nord N 5.5
30 Agosto 2026 07:55 tempo osservato: Sereno Sereno 19 82 1014 vento: Nord O/SO 7.4
30 Agosto 2026 07:35 tempo osservato: Sereno Sereno 18 88 1014 vento: Nord N 0
30 Agosto 2026 07:15 tempo osservato: Sereno Sereno 17 93 1014 vento: Nord O 13
30 Agosto 2026 06:55 tempo osservato: Sereno Sereno 17 93 1014 vento: Nord O 9.3
30 Agosto 2026 06:35 tempo osservato: Sereno Sereno 17 88 1014 vento: Nord O 14.8
30 Agosto 2026 06:15 tempo osservato: Sereno Sereno 17 93 1014 vento: Nord O 13
30 Agosto 2026 05:55 tempo osservato: Sereno Sereno 17 93 1014 vento: Nord O 11.1
30 Agosto 2026 05:35 tempo osservato: Sereno Sereno 17 93 1014 vento: Nord O 9.3
30 Agosto 2026 05:15 tempo osservato: Sereno Sereno 17 93 1014 vento: Nord O 9.3
30 Agosto 2026 04:55 tempo osservato: Sereno Sereno 17 93 1013 vento: Nord O 9.3
30 Agosto 2026 04:35 tempo osservato: Sereno Sereno 17 93 1013 vento: Nord O/SO 7.4
30 Agosto 2026 04:15 tempo osservato: Sereno Sereno 18 88 1013 vento: Nord N 5.5
30 Agosto 2026 03:55 tempo osservato: Sereno Sereno 17 93 1013 vento: Nord O 7.4
30 Agosto 2026 03:35 tempo osservato: Sereno Sereno 18 93 1013 vento: Nord O 7.4
30 Agosto 2026 03:15 tempo osservato: Sereno Sereno 18 93 1013 vento: Nord O 9.3
30 Agosto 2026 02:55 tempo osservato: Sereno Sereno 18 93 1012 vento: Nord O 9.3
30 Agosto 2026 02:35 tempo osservato: Sereno Sereno 18 93 1012 vento: Nord N 5.5
30 Agosto 2026 02:15 tempo osservato: Sereno Sereno 19 93 1012 vento: Nord N 0
30 Agosto 2026 01:55 tempo osservato: Sereno Sereno 19 93 1012 vento: Nord N 0
30 Agosto 2026 01:35 tempo osservato: Sereno Sereno 19 93 1012 vento: Nord O/NO 7.4
30 Agosto 2026 01:15 tempo osservato: Nuvoloso Nuvoloso 20 88 1013 vento: Nord O/SO 7.4
30 Agosto 2026 00:55 tempo osservato: Sereno Sereno 20 93 1013 vento: Nord N 0
30 Agosto 2026 00:35 tempo osservato: Sereno Sereno 21 82 1014 vento: Nord O/NO 9.3